Alamosa, CO

8:56 AM MST on December 14, 2019 (GMT -0700)
San Luis Valley Regional / Bergman Field

Weather History for KALS - November, 2019

Change the Weather History Date:

Saturday, November 16, 2019

  Actual Average Record
Temperature  
Mean Temperature 36 °F 29 °F  
Max Temperature 58 °F 47 °F 67 °F (2016)
Min Temperature 14 °F 12 °F -10 °F (1955)
Degree Days  
Heating Degree Days 29 36  
Month to date heating degree days 524 512  
Since 1 July heating degree days 1592 1622  
Cooling Degree Days 0 0  
Month to date cooling degree days 0 0  
Year to date cooling degree days 72 51  
Moisture  
Dew Point 10 °F    
Average Humidity 43    
Maximum Humidity 70    
Minimum Humidity 15    
Precipitation  
Precipitation 0.00 in 0.01 in 0.56 in (1957)
Month to date precipitation 0.00 0.25  
Year to date precipitation 6.85 6.79  
Snow  
Snow 0.00 in 0.10 in 6.10 in (1957)
Month to date snowfall 0.0 1.9  
Since 1 July snowfall 0.6 4.0  
Since 1 September snowfall 0.6 4.0  
Snow Depth 0.00 in    
Sea Level Pressure  
Sea Level Pressure 30.16 in    
Wind  
Wind Speed 4 mph (NNE)    
Max Wind Speed 15 mph    
Max Gust Speed 23 mph    
Visibility 10 miles    
Events      
T = Trace of Precipitation, MM = Missing Value Source: NWS Daily Summary

Daily Weather History Graph

Daily Weather History Graph

Search for Another Location

Airport or City:

Astronomy

Nov. 16, 2019 Rise Set
Actual Time 6:43 AM MST 4:52 PM MST
Civil Twilight 6:15 AM MST 5:20 PM MST
Nautical Twilight 5:44 AM MST 5:51 PM MST
Astronomical Twilight 5:13 AM MST 6:22 PM MST
Moon 8:29 PM MST (11/16) 10:37 AM MST (11/16)
Length of Visible Light 11h 04m
Length of Day
10h 08m
Waning Gibbous, 82% of the Moon is Illuminated
Nov 16
Waning Gibbous
Nov 19
Last Quarter
Nov 26
New
Dec 3
First Quarter
Dec 11
Full

Hourly Weather History & Observations

Time (MST) Temp. Windchill Dew Point Humidity Pressure Visibility Wind Dir Wind Speed Gust Speed Precip Events Conditions
1:52 AM 21.9 °F 14.5 °F 8.1 °F 55% 30.19 in 8.0 mi WNW 5.8 mph - N/A   Clear
2:52 AM 21.9 °F 17.2 °F 9.0 °F 58% 30.19 in 10.0 mi West 3.5 mph - N/A   Clear
3:52 AM 19.9 °F - 8.1 °F 60% 30.19 in 10.0 mi Calm Calm - N/A   Clear
4:52 AM 14.0 °F 8.2 °F 6.1 °F 71% 30.23 in 10.0 mi SSW 3.5 mph - N/A   Clear
5:52 AM 15.1 °F - 7.0 °F 70% 30.28 in 10.0 mi Calm Calm - N/A   Clear
6:52 AM 17.1 °F - 6.1 °F 62% 30.29 in 10.0 mi Calm Calm - N/A   Clear
7:52 AM 19.9 °F - 6.1 °F 55% 30.32 in 10.0 mi Calm Calm - N/A   Clear
9:52 AM 41.0 °F - 12.0 °F 31% 30.23 in 10.0 mi Calm Calm - N/A   Clear
10:52 AM 46.9 °F - 12.9 °F 25% 30.17 in 10.0 mi Calm Calm - N/A   Clear
11:52 AM 51.1 °F - 12.9 °F 22% 30.11 in 10.0 mi ESE 5.8 mph - N/A   Clear
12:52 PM 55.0 °F - 12.0 °F 18% 30.05 in 10.0 mi NE 9.2 mph - N/A   Clear
1:52 PM 55.9 °F - 10.9 °F 17% 30.04 in 10.0 mi East 3.5 mph - N/A   Clear
2:52 PM 57.9 °F - 10.0 °F 15% 30.01 in 10.0 mi NNE 6.9 mph - N/A   Clear
3:52 PM 55.9 °F - 9.0 °F 15% 30.02 in 10.0 mi NE 3.5 mph - N/A   Clear
4:52 PM 50.0 °F - 10.0 °F 20% 30.10 in 10.0 mi Calm Calm - N/A   Clear
5:52 PM 43.0 °F 40.3 °F 10.9 °F 27% 30.15 in 8.0 mi NNE 4.6 mph - N/A   Mostly Cloudy
6:52 PM 44.1 °F 37.4 °F 12.9 °F 28% 30.17 in 10.0 mi NNE 13.8 mph - N/A   Overcast
7:52 PM 39.0 °F 34.8 °F 14.0 °F 36% 30.21 in 10.0 mi NNE 5.8 mph - N/A   Mostly Cloudy
8:52 PM 35.1 °F 27.9 °F 14.0 °F 42% 30.19 in 10.0 mi NE 9.2 mph - N/A   Partly Cloudy
9:52 PM 35.1 °F 30.1 °F 14.0 °F 42% 30.16 in 10.0 mi NW 5.8 mph - N/A   Scattered Clouds
10:52 PM 30.0 °F 26.5 °F 12.9 °F 49% 30.16 in 10.0 mi North 3.5 mph - N/A   Partly Cloudy
11:52 PM 26.1 °F 18.4 °F 12.9 °F 58% 30.17 in 10.0 mi SSW 6.9 mph - N/A   Clear